Gage, OK

3:13 AM CDT on September 30, 2016 (GMT -0500)
Gage

Weather History for KGAG - May, 2013

Change the Weather History Date:

Wednesday, May 22, 2013

  Actual Average Record
Temperature  
Mean Temperature 66 °F -  
Max Temperature 86 °F 81 °F 100 °F (1966)
Min Temperature 45 °F 55 °F 39 °F (2001)
Growing Degree Days 16 (Base 50)    
Moisture  
Dew Point 46 °F    
Average Humidity 54    
Maximum Humidity 86    
Minimum Humidity 23    
Precipitation  
Precipitation 0.00 in - - ()
Sea Level Pressure  
Sea Level Pressure 29.85 in    
Wind  
Wind Speed 5 mph (SE)    
Max Wind Speed 14 mph    
Max Gust Speed 21 mph    
Visibility 10 miles    
Events      
Averages and records for this station are not official NWS values.
T = Trace of Precipitation, MM = Missing Value Source: NWS Daily Summary

Daily Weather History Graph

Daily Weather History Graph

Search for Another Location

Airport or City:

Trip Planner

Search our weather history database for the weather conditions in past years. The results will help you decide how hot, cold, wet, or windy it might be!

Date:

Astronomy

May. 22, 2013 Rise Set
Actual Time 6:27 AM CDT 8:44 PM CDT
Civil Twilight 5:58 AM CDT 9:13 PM CDT
Nautical Twilight 5:22 AM CDT 9:49 PM CDT
Astronomical Twilight 4:43 AM CDT 10:28 PM CDT
Moon 6:12 PM CDT (5/22) 4:27 AM CDT (5/22)
Length of Visible Light 15h 15m
Length of Day
14h 16m
Waxing Gibbous, 91% of the Moon is Illuminated
May 22
Waxing Gibbous
May 24
Full
May 31
Last Quarter
Jun 8
New
Jun 16
First Quarter

Hourly Weather History & Observations

Time (CDT) Temp. Windchill Dew Point Humidity Pressure Visibility Wind Dir Wind Speed Gust Speed Precip Events Conditions
12:53 AM 53.1 °F - 45.0 °F 74% 29.82 in 10.0 mi SSW 5.8 mph - N/A   Clear
1:53 AM 48.9 °F - 44.1 °F 83% 29.83 in 10.0 mi Calm Calm - N/A   Clear
2:53 AM 51.1 °F - 43.0 °F 74% 29.84 in 10.0 mi NW 3.5 mph - N/A   Clear
3:53 AM 50.0 °F - 42.1 °F 74% 29.84 in 10.0 mi Calm Calm - N/A   Clear
4:53 AM 46.0 °F - 41.0 °F 83% 29.85 in 10.0 mi Calm Calm - N/A   Clear
5:53 AM 45.0 °F 43.5 °F 41.0 °F 86% 29.88 in 10.0 mi South 3.5 mph - N/A   Clear
6:53 AM 45.0 °F - 41.0 °F 86% 29.90 in 10.0 mi Calm Calm - N/A   Clear
7:53 AM 55.0 °F - 44.1 °F 67% 29.91 in 10.0 mi Calm Calm - N/A   Mostly Cloudy
8:53 AM 60.1 °F - 45.0 °F 57% 29.92 in 10.0 mi NNE 6.9 mph - N/A   Partly Cloudy
9:53 AM 64.0 °F - 45.0 °F 50% 29.92 in 10.0 mi NE 9.2 mph - N/A   Clear
10:53 AM 68.0 °F - 46.0 °F 45% 29.93 in 10.0 mi NNE 6.9 mph - N/A   Clear
11:53 AM 72.0 °F - 46.0 °F 40% 29.92 in 10.0 mi Variable 4.6 mph - N/A   Clear
12:53 PM 73.9 °F - 44.1 °F 34% 29.91 in 10.0 mi Variable 3.5 mph - N/A   Clear
1:53 PM 77.0 °F - 45.0 °F 32% 29.88 in 10.0 mi ESE 8.1 mph - N/A   Clear
2:53 PM 81.0 °F - 44.1 °F 27% 29.84 in 10.0 mi SW 11.5 mph 17.3 mph N/A   Clear
3:53 PM 82.0 °F - 46.0 °F 28% 29.83 in 10.0 mi SSW 11.5 mph 18.4 mph N/A   Clear
4:53 PM 84.0 °F - 46.9 °F 27% 29.81 in 10.0 mi South 11.5 mph 18.4 mph N/A   Clear
5:53 PM 86.0 °F - 44.1 °F 23% 29.78 in 10.0 mi South 13.8 mph 19.6 mph N/A   Clear
6:53 PM 84.9 °F - 43.0 °F 23% 29.78 in 10.0 mi South 8.1 mph - N/A   Clear
7:53 PM 79.0 °F - 50.0 °F 36% 29.78 in 10.0 mi East 11.5 mph 17.3 mph N/A   Clear
8:53 PM 75.0 °F - 51.1 °F 43% 29.80 in 10.0 mi East 11.5 mph 18.4 mph N/A   Clear
9:53 PM 70.0 °F - 54.0 °F 57% 29.83 in 10.0 mi East 13.8 mph 20.7 mph N/A   Clear
10:53 PM 66.9 °F - 55.0 °F 66% 29.85 in 10.0 mi ESE 11.5 mph - N/A   Clear
11:53 PM 64.9 °F - 55.9 °F 73% 29.86 in 10.0 mi ESE 10.4 mph - N/A   Clear